2019-037A (44365 NORAD) Tracking and Keplerian Element Data

This shows tracking and keplerian element data for the satellite.

Feedback or suggestion? Click here.




ElementValue
Catalog44365
Name2019-037A
Epoch Orbit455
Epoch Day209.790472
Epoch Year2019
RAAN125.4692
Inclination45.0112
Eccentricity0.0004984
Argument of Perigee110.7321
Mean Anonmoly249.4259
Mean Motion15.36682673
Decay Rate-3.31E-06
L11 44365U 19037A 19209.79047200 -.00000331 00000-0 00000-0 0 9990
L22 44365 45.0112 125.4692 0004984 110.7321 249.4259 15.36682673 4552

Live tracking and technical data element details for 2019-037A (NORAD 44365). 2019-037A can be tracked NOW for your location showing map with azimuth and elevation plus other details from your city location.

Track the satellite on the map from your city or location and see movement details for azimuth, elevation, latitude, longitude, range, height, and movement on the map or in text.







IsCatalogInMostPopularTable: catalog: 44365, numindb: 18
Update: records affected: 1



GetName: 44365 2019-037A

Hit Count: updated at: Tue, 22 Oct 2019 23:37:36 GMT